Location: *
(44.1392°N, 4.8079°E)
Time: 02:54:31
(UTC+00:00)

COSMOS 2406 - Visible Passes

Search period start: 23 October 2021 00:00
Search period end: 02 November 2021 00:00
Orbit: 842 x 865 km, 71.0° (Epoch: 22 October)

Date Brightness Start Highest point End Pass type
(mag) Time Alt. Az. Time Alt. Az. Time Alt. Az.
23 Oct 6.0 01:46:09 12° NNE 01:46:09 12° NNE 01:46:37 10° NNE visible
23 Oct 5.1 03:28:14 18° NNW 03:28:14 18° NNW 03:30:14 10° N visible
24 Oct 5.3 03:17:14 16° N 03:17:14 16° N 03:18:44 10° N visible
25 Oct 5.5 03:06:12 14° N 03:06:12 14° N 03:07:14 10° N visible
26 Oct 5.6 02:55:09 12° N 02:55:09 12° N 02:55:43 10° N visible
27 Oct 5.8 02:44:04 10° N 02:44:04 10° N 02:44:12 10° N visible
